Weather History for Monroe, MI

Change the Weather History Date:

Monday, November 11, 2013

  Actual Average Record
Temperature  
Mean Temperature 38 °F -  
Max Temperature 46 °F 47 °F 73 °F (1964)
Min Temperature 28 °F 32 °F 17 °F (1977)
Degree Days  
Heating Degree Days 27    
Moisture  
Dew Point 32 °F    
Average Humidity 78    
Maximum Humidity 100    
Minimum Humidity 61    
Precipitation  
Precipitation 0.00 in - - ()
Sea Level Pressure  
Sea Level Pressure 30.13 in    
Wind  
Wind Speed 8 mph (West)    
Max Wind Speed 20 mph    
Max Gust Speed 28 mph    
Visibility 8 miles    
Events Rain , Snow    
Averages and records for this station are not official NWS values.
T = Trace of Precipitation, MM = Missing Value Source: NWS Daily Summary

Daily Weather History Graph

Daily Weather History Graph

Search for Another Location

Airport:

Trip Planner

Search our weather history database for the weather conditions in past years. The results will help you decide how hot, cold, wet, or windy it might be!

Date:

Astronomy

Nov. 11, 2013 Rise Set
Actual Time 7:18 AM EST 5:16 PM EST
Civil Twilight 6:49 AM EST 5:45 PM EST
Nautical Twilight 6:15 AM EST 6:19 PM EST
Astronomical Twilight 5:42 AM EST 6:52 PM EST
Moon 2:01 PM EST (11/11) 12:57 AM EST (11/11)
Length of Visible Light 10h 56m
Length of Day
9h 57m
Waxing Gibbous, 66% of the Moon is Illuminated
Nov 11
Waxing Gibbous
Nov 17
Full
Nov 25
Last Quarter
Dec 2
New
Dec 9
First Quarter

Hourly Weather History & Observations

Time (EST) Temp. Windchill Dew Point Humidity Pressure Visibility Wind Dir Wind Speed Gust Speed Precip Events Conditions
12:16 AM 33.8 °F 30.8 °F 28.4 °F 81% 30.25 in 10.0 mi WSW 3.5 mph - N/A   Clear
12:36 AM 33.8 °F - 30.2 °F 87% 30.24 in 10.0 mi Calm Calm - N/A   Clear
12:56 AM 35.6 °F 32.8 °F 30.2 °F 81% 30.23 in 10.0 mi SSW 3.5 mph - N/A   Clear
1:17 AM 35.6 °F 32.8 °F 30.2 °F 81% 30.22 in 10.0 mi SW 3.5 mph - N/A   Clear
1:32 AM 35.6 °F 31.7 °F 30.2 °F 81% 30.22 in 10.0 mi SSW 4.6 mph - N/A   Scattered Clouds
1:52 AM 35.6 °F 32.8 °F 30.2 °F 81% 30.22 in 10.0 mi SSW 3.5 mph - N/A   Overcast
2:12 AM 35.6 °F 31.7 °F 32.0 °F 87% 30.21 in 10.0 mi SSW 4.6 mph - N/A   Overcast
2:32 AM 37.4 °F 33.8 °F 32.0 °F 81% 30.21 in 10.0 mi SSW 4.6 mph - N/A   Overcast
2:52 AM 37.4 °F 34.9 °F 32.0 °F 81% 30.20 in 10.0 mi SSW 3.5 mph - N/A   Overcast
3:12 AM 37.4 °F 33.8 °F 32.0 °F 81% 30.20 in 10.0 mi SSW 4.6 mph - N/A   Overcast
3:32 AM 37.4 °F 32.8 °F 32.0 °F 81% 30.18 in 10.0 mi South 5.8 mph - N/A   Overcast
3:52 AM 37.4 °F 31.4 °F 33.8 °F 87% 30.16 in 10.0 mi South 8.1 mph - N/A   Overcast
4:12 AM 37.4 °F 32.1 °F 32.0 °F 81% 30.15 in 10.0 mi South 6.9 mph - N/A   Overcast
4:33 AM 39.2 °F 34.2 °F 32.0 °F 75% 30.15 in 10.0 mi SSW 6.9 mph - N/A   Overcast
4:53 AM 39.2 °F 35.9 °F 32.0 °F 75% 30.15 in 10.0 mi SSW 4.6 mph - N/A   Overcast
5:13 AM 39.2 °F 35.0 °F 32.0 °F 75% 30.15 in 10.0 mi SSW 5.8 mph - N/A   Overcast
5:33 AM 39.2 °F 33.6 °F 30.2 °F 70% 30.13 in 10.0 mi SSW 8.1 mph - N/A   Overcast
5:53 AM 39.2 °F 34.2 °F 32.0 °F 75% 30.13 in 10.0 mi SSW 6.9 mph - N/A   Overcast
6:13 AM 39.2 °F 33.0 °F 30.2 °F 70% 30.11 in 10.0 mi SSW 9.2 mph - N/A   Overcast
6:33 AM 39.2 °F 32.5 °F 30.2 °F 70% 30.11 in 10.0 mi SSW 10.4 mph - N/A   Overcast
6:53 AM 39.2 °F 33.0 °F 32.0 °F 75% 30.10 in 10.0 mi SW 9.2 mph - N/A   Overcast
7:13 AM 41.0 °F 35.2 °F 32.0 °F 70% 30.10 in 10.0 mi SW 9.2 mph - N/A   Overcast
7:33 AM 42.8 °F 36.6 °F 30.2 °F 61% 30.10 in 10.0 mi SW 11.5 mph - N/A   Overcast
7:53 AM 42.8 °F 37.0 °F 30.2 °F 61% 30.09 in 10.0 mi SSW 10.4 mph - N/A   Overcast
8:13 AM 42.8 °F 37.0 °F 32.0 °F 66% 30.09 in 10.0 mi SW 10.4 mph 17.3 mph N/A   Overcast
8:34 AM 42.8 °F 36.6 °F 32.0 °F 66% 30.09 in 10.0 mi SW 11.5 mph 18.4 mph N/A   Overcast
8:54 AM 42.8 °F 36.6 °F 32.0 °F 66% 30.09 in 10.0 mi WSW 11.5 mph 17.3 mph N/A   Overcast
9:14 AM 42.8 °F 34.8 °F 32.0 °F 66% 30.08 in 10.0 mi WSW 17.3 mph - N/A   Overcast
9:34 AM 44.6 °F 36.6 °F 32.0 °F 61% 30.07 in 10.0 mi SW 19.6 mph 26.5 mph N/A   Overcast
9:54 AM 44.6 °F 37.4 °F 32.0 °F 61% 30.07 in 10.0 mi SW 16.1 mph 25.3 mph N/A   Overcast
10:14 AM 44.6 °F 37.4 °F 32.0 °F 61% 30.07 in 10.0 mi SW 16.1 mph 24.2 mph N/A   Overcast
10:34 AM 44.6 °F 37.4 °F 33.8 °F 66% 30.08 in 10.0 mi WSW 16.1 mph 20.7 mph N/A   Overcast
10:54 AM 44.6 °F 37.4 °F 33.8 °F 66% 30.07 in 10.0 mi WSW 16.1 mph - N/A   Overcast
11:15 AM 44.6 °F 38.8 °F 33.8 °F 66% 30.06 in 10.0 mi WSW 11.5 mph - N/A   Overcast
11:35 AM 44.6 °F 38.4 °F 33.8 °F 66% 30.05 in 10.0 mi WSW 12.7 mph - N/A   Overcast
11:55 AM 44.6 °F 37.8 °F 33.8 °F 66% 30.05 in 10.0 mi WSW 15.0 mph 18.4 mph N/A   Overcast
12:15 PM 46.4 °F 40.7 °F 33.8 °F 62% 30.03 in 10.0 mi WSW 12.7 mph - N/A   Overcast
12:35 PM 46.4 °F 40.7 °F 33.8 °F 62% 30.03 in 10.0 mi WSW 12.7 mph 16.1 mph N/A   Overcast
12:55 PM 46.4 °F 41.1 °F 33.8 °F 62% 30.03 in 10.0 mi WSW 11.5 mph - N/A   Overcast
1:15 PM 46.4 °F 42.4 °F 33.8 °F 62% 30.02 in 10.0 mi West 8.1 mph 20.7 mph N/A   Overcast
1:35 PM 44.6 °F 38.4 °F 35.6 °F 71% 30.02 in 7.0 mi West 12.7 mph 19.6 mph N/A   Drizzle
1:55 PM 44.6 °F 38.8 °F 37.4 °F 76% 30.02 in 7.0 mi West 11.5 mph - N/A   Drizzle
2:15 PM 42.8 °F 37.0 °F 39.2 °F 87% 30.03 in 7.0 mi West 10.4 mph - N/A Rain Rain
2:35 PM 42.8 °F 37.0 °F 39.2 °F 87% 30.03 in 7.0 mi West 10.4 mph - N/A   Drizzle
2:56 PM 42.8 °F 36.6 °F 39.2 °F 87% 30.03 in 5.0 mi West 11.5 mph - N/A Rain Light Rain
3:16 PM 42.8 °F 38.0 °F 39.2 °F 87% 30.03 in 4.0 mi West 8.1 mph - N/A Rain Light Rain
3:36 PM 42.8 °F 38.0 °F 39.2 °F 87% 30.03 in 4.0 mi WNW 8.1 mph - N/A Rain Light Rain
3:56 PM 41.0 °F 34.3 °F 39.2 °F 93% 30.04 in 5.0 mi WNW 11.5 mph - N/A Rain Light Rain
4:16 PM 41.0 °F 34.7 °F 39.2 °F 93% 30.05 in 7.0 mi NW 10.4 mph 17.3 mph N/A Rain Light Rain
4:36 PM 39.2 °F 30.5 °F 37.4 °F 93% 30.07 in 7.0 mi NNW 16.1 mph - N/A Rain Light Rain
4:56 PM 37.4 °F 30.8 °F 35.6 °F 93% 30.08 in 7.0 mi NW 9.2 mph - N/A Rain Light Rain
5:16 PM 37.4 °F 28.9 °F 35.6 °F 93% 30.09 in 7.0 mi NNW 13.8 mph 19.6 mph N/A Rain Light Rain
5:37 PM 35.6 °F 28.0 °F 33.8 °F 93% 30.11 in 5.0 mi NNW 10.4 mph 17.3 mph N/A Rain Light Rain
5:52 PM 35.6 °F 26.2 °F 33.8 °F 93% 30.12 in 5.0 mi North 15.0 mph 21.9 mph N/A Rain Light Rain
6:12 PM 33.8 °F 24.3 °F 32.0 °F 93% 30.13 in 2.0 mi North 13.8 mph 18.4 mph N/A Snow Light Snow
6:32 PM 33.8 °F 24.8 °F 32.0 °F 93% 30.15 in 2.5 mi North 12.7 mph 18.4 mph N/A Snow Light Snow
6:52 PM 33.8 °F 24.3 °F 32.0 °F 93% 30.15 in 2.0 mi North 13.8 mph - N/A Snow Light Snow
7:12 PM 32.0 °F 21.2 °F 30.2 °F 93% 30.17 in 2.0 mi North 16.1 mph 27.6 mph N/A Snow Light Snow
7:32 PM 32.0 °F 24.2 °F 30.2 °F 93% 30.18 in 1.8 mi North 9.2 mph 19.6 mph N/A Snow Light Snow
7:52 PM 30.2 °F 19.3 °F 30.2 °F 100% 30.19 in 1.2 mi North 15.0 mph 23.0 mph N/A Snow Light Snow
8:12 PM 30.2 °F 21.9 °F 26.6 °F 86% 30.20 in 4.0 mi North 9.2 mph - N/A Snow Light Snow
8:32 PM 30.2 °F 24.3 °F 26.6 °F 86% 30.21 in 7.0 mi North 5.8 mph - N/A Snow Light Snow
8:52 PM 30.2 °F 21.3 °F 26.6 °F 86% 30.21 in 10.0 mi NNW 10.4 mph - N/A   Overcast
9:13 PM 30.2 °F 23.4 °F 26.6 °F 86% 30.22 in 10.0 mi NNW 6.9 mph - N/A   Overcast
9:33 PM 30.2 °F 22.6 °F 26.6 °F 86% 30.23 in 10.0 mi NNW 8.1 mph - N/A   Overcast
9:53 PM 30.2 °F 22.6 °F 24.8 °F 80% 30.24 in 10.0 mi NNW 8.1 mph 16.1 mph N/A   Scattered Clouds
10:13 PM 30.2 °F 22.6 °F 24.8 °F 80% 30.25 in 10.0 mi NNW 8.1 mph - N/A   Scattered Clouds
10:33 PM 30.2 °F 20.8 °F 24.8 °F 80% 30.26 in 10.0 mi NNW 11.5 mph 16.1 mph N/A   Clear
10:53 PM 30.2 °F 20.8 °F 23.0 °F 75% 30.27 in 10.0 mi NNW 11.5 mph 19.6 mph N/A   Clear
11:13 PM 30.2 °F 22.6 °F 21.2 °F 69% 30.27 in 10.0 mi NNW 8.1 mph - N/A   Clear
11:33 PM 30.2 °F 21.9 °F 21.2 °F 69% 30.28 in 10.0 mi NNW 9.2 mph - N/A   Scattered Clouds
11:54 PM 28.4 °F 19.7 °F 21.2 °F 74% 30.29 in 10.0 mi NNW 9.2 mph 18.4 mph N/A   Mostly Cloudy